When you browse on this site, cookies collect data to enhance your experience and personalize the content and advertising you see.
Visit our Privacy Policy to learn more. By continuing to use the site, you agree to this use of cookies and data.
  • In Latvia
  • List of Countries
  • For 7 days
  • Water Temperature
  • Satellite Maps
  • Weather Map
  • Weather Widgets
  • user-avatar
    Login

    Hourly Weather Istomino

    Today, 22 February, Friday

    Time Temperature Precipitation Wind Pressure Humidity
    00:00 0°C° 0.1 mm 5 mps 758 mmHg 69%
    01:00 -1°C° 0 mm 5 mps 759 mmHg 68%
    02:00 -1°C° 0 mm 5 mps 759 mmHg 66%
    03:00 -2°C° 0 mm 5 mps 759 mmHg 61%
    04:00 -2°C° 0 mm 5 mps 759 mmHg 60%
    05:00 -2°C° 0 mm 5 mps 759 mmHg 59%
    06:00 -4°C° 0 mm 5 mps 760 mmHg 58%
    07:00 -4°C° 0 mm 5 mps 760 mmHg 56%
    08:00 -3°C° 0 mm 4 mps 760 mmHg 53%
    09:00 -2°C° 0 mm 4 mps 760 mmHg 51%
    10:00 -2°C° 0 mm 4 mps 760 mmHg 50%
    11:00 -1°C° 0 mm 4 mps 760 mmHg 48%
    12:00 -1°C° 0 mm 4 mps 760 mmHg 47%
    13:00 -1°C° 0 mm 4 mps 760 mmHg 46%
    14:00 +1°C° 0 mm 3 mps 760 mmHg 45%
    15:00 +1°C° 0 mm 3 mps 760 mmHg 44%
    16:00 0°C° 0 mm 3 mps 760 mmHg 47%
    17:00 0°C° 0 mm 3 mps 761 mmHg 49%
    18:00 -1°C° 0 mm 2 mps 761 mmHg 52%
    19:00 -1°C° 0.1 mm 3 mps 762 mmHg 58%
    20:00 -2°C° 0.1 mm 3 mps 762 mmHg 65%
    21:00 -4°C° 0.1 mm 4 mps 763 mmHg 72%
    22:00 -4°C° 0.3 mm 4 mps 763 mmHg 75%
    23:00 -4°C° 0.3 mm 4 mps 763 mmHg 78%

    Tomorrow, 23 February, Saturday

    Time Temperature Precipitation Wind Pressure Humidity
    00:00 -6°C° 0.3 mm 5 mps 764 mmHg 81%
    01:00 -6°C° 0.4 mm 5 mps 764 mmHg 82%
    02:00 -6°C° 0.4 mm 5 mps 764 mmHg 83%
    03:00 -6°C° 0.4 mm 5 mps 765 mmHg 84%
    04:00 -7°C° 0.4 mm 5 mps 765 mmHg 85%
    05:00 -7°C° 0.4 mm 5 mps 765 mmHg 86%
    06:00 -7°C° 0.4 mm 5 mps 766 mmHg 87%
    07:00 -7°C° 0.3 mm 5 mps 766 mmHg 87%
    08:00 -7°C° 0.3 mm 5 mps 767 mmHg 87%
    09:00 -7°C° 0.3 mm 5 mps 768 mmHg 87%
    10:00 -7°C° 0.2 mm 5 mps 768 mmHg 86%
    11:00 -6°C° 0.2 mm 5 mps 768 mmHg 85%
    12:00 -6°C° 0.2 mm 5 mps 768 mmHg 84%
    13:00 -5°C° 0.1 mm 5 mps 768 mmHg 82%
    14:00 -5°C° 0.1 mm 5 mps 769 mmHg 81%
    15:00 -5°C° 0.1 mm 5 mps 769 mmHg 80%
    16:00 -5°C° 0.1 mm 5 mps 769 mmHg 80%
    17:00 -4°C° 0.1 mm 4 mps 769 mmHg 80%
    18:00 -5°C° 0.1 mm 4 mps 769 mmHg 80%
    19:00 -5°C° 0 mm 4 mps 770 mmHg 81%
    20:00 -6°C° 0 mm 5 mps 770 mmHg 81%
    21:00 -7°C° 0 mm 5 mps 770 mmHg 81%
    22:00 -7°C° 0 mm 5 mps 770 mmHg 81%
    23:00 -7°C° 0 mm 5 mps 770 mmHg 82%

    Day after tomorrow, 24 February, Sunday

    Time Temperature Precipitation Wind Pressure Humidity
    00:00 -7°C° 0 mm 5 mps 770 mmHg 82%
    01:00 -7°C° 0 mm 4 mps 770 mmHg 81%
    02:00 -7°C° 0 mm 4 mps 770 mmHg 81%
    03:00 -8°C° 0 mm 4 mps 770 mmHg 81%
    04:00 -8°C° 0 mm 4 mps 770 mmHg 81%
    05:00 -8°C° 0 mm 4 mps 770 mmHg 82%
    06:00 -9°C° 0 mm 4 mps 770 mmHg 83%
    07:00 -9°C° 0 mm 4 mps 771 mmHg 83%
    08:00 -9°C° 0 mm 4 mps 771 mmHg 83%
    09:00 -9°C° 0 mm 4 mps 771 mmHg 84%
    10:00 -9°C° 0 mm 4 mps 771 mmHg 79%
    11:00 -7°C° 0 mm 3 mps 771 mmHg 75%
    12:00 -6°C° 0 mm 3 mps 771 mmHg 71%
    13:00 -6°C° 0 mm 3 mps 771 mmHg 69%
    14:00 -5°C° 0 mm 3 mps 771 mmHg 67%
    15:00 -5°C° 0 mm 3 mps 771 mmHg 65%
    16:00 -4°C° 0 mm 2 mps 771 mmHg 66%
    17:00 -5°C° 0 mm 2 mps 771 mmHg 67%
    18:00 -5°C° 0 mm 2 mps 771 mmHg 68%
    19:00 -5°C° 0 mm 2 mps 771 mmHg 67%
    20:00 -5°C° 0 mm 2 mps 771 mmHg 67%
    21:00 -6°C° 0 mm 2 mps 771 mmHg 67%
    22:00 -6°C° 0 mm 2 mps 771 mmHg 67%
    23:00 -6°C° 0 mm 3 mps 771 mmHg 68%

    25 February, Monday

    Time Temperature Precipitation Wind Pressure Humidity
    00:00 -7°C° 0 mm 4 mps 771 mmHg 68%
    01:00 -7°C° 0 mm 4 mps 770 mmHg 70%
    02:00 -7°C° 0 mm 4 mps 770 mmHg 73%
    03:00 -5°C° 0 mm 4 mps 770 mmHg 75%
    04:00 -5°C° 0.1 mm 4 mps 769 mmHg 78%
    05:00 -5°C° 0.1 mm 4 mps 769 mmHg 82%
    06:00 -5°C° 0.1 mm 4 mps 768 mmHg 85%
    07:00 -5°C° 0.1 mm 5 mps 768 mmHg 87%
    08:00 -5°C° 0.1 mm 5 mps 768 mmHg 88%
    09:00 -4°C° 0.1 mm 5 mps 768 mmHg 90%
    10:00 -4°C° 0.2 mm 5 mps 767 mmHg 89%
    11:00 -3°C° 0.2 mm 6 mps 767 mmHg 88%
    12:00 -3°C° 0.2 mm 6 mps 767 mmHg 87%
    13:00 -2°C° 0 mm 6 mps 766 mmHg 86%
    14:00 -2°C° 0 mm 6 mps 766 mmHg 85%
    15:00 -2°C° 0 mm 6 mps 765 mmHg 83%
    16:00 -1°C° 0 mm 5 mps 765 mmHg 83%
    17:00 -1°C° 0 mm 5 mps 764 mmHg 84%
    18:00 -1°C° 0 mm 5 mps 764 mmHg 84%
    19:00 -1°C° 0.1 mm 5 mps 763 mmHg 84%
    20:00 -1°C° 0.1 mm 5 mps 763 mmHg 85%
    21:00 -2°C° 0.1 mm 6 mps 763 mmHg 86%
    22:00 -2°C° 0.3 mm 6 mps 762 mmHg 87%
    23:00 -2°C° 0.3 mm 6 mps 761 mmHg 88%

    26 February, Tuesday

    Time Temperature Precipitation Wind Pressure Humidity
    00:00 -2°C° 0.3 mm 7 mps 760 mmHg 89%
    01:00 -2°C° 0.3 mm 7 mps 760 mmHg 90%
    02:00 -2°C° 0.3 mm 6 mps 759 mmHg 91%
    03:00 -2°C° 0.3 mm 6 mps 758 mmHg 92%
    04:00 -2°C° 0.4 mm 6 mps 758 mmHg 92%
    05:00 -2°C° 0.4 mm 6 mps 757 mmHg 92%
    06:00 -2°C° 0.4 mm 7 mps 756 mmHg 92%
    07:00 -2°C° 0.5 mm 7 mps 755 mmHg 90%
    08:00 -2°C° 0.5 mm 7 mps 755 mmHg 89%
    09:00 -2°C° 0.5 mm 7 mps 754 mmHg 88%
    10:00 -2°C° 0.1 mm 6 mps 754 mmHg 87%
    11:00 -2°C° 0.1 mm 6 mps 754 mmHg 86%
    12:00 -1°C° 0.1 mm 6 mps 753 mmHg 86%
    13:00 -1°C° 0.3 mm 6 mps 753 mmHg 84%
    14:00 -1°C° 0.3 mm 6 mps 753 mmHg 82%
    15:00 -1°C° 0.3 mm 6 mps 753 mmHg 80%
    16:00 0°C° 0.1 mm 5 mps 752 mmHg 81%
    17:00 -1°C° 0.1 mm 4 mps 752 mmHg 82%
    18:00 -1°C° 0.1 mm 3 mps 752 mmHg 82%
    19:00 -1°C° 0 mm 3 mps 752 mmHg 84%
    20:00 -1°C° 0 mm 3 mps 751 mmHg 86%
    21:00 -2°C° 0 mm 3 mps 751 mmHg 88%
    22:00 -2°C° 0 mm 2 mps 751 mmHg 89%
    23:00 -2°C° 0 mm 2 mps 751 mmHg 90%

    27 February, Wednesday

    Time Temperature Precipitation Wind Pressure Humidity
    00:00 -2°C° 0 mm 2 mps 750 mmHg 91%
    01:00 -2°C° 0 mm 2 mps 750 mmHg 91%
    02:00 0°C° 0 mm 1 mps 750 mmHg 91%
    03:00 0°C° 0 mm 1 mps 750 mmHg 92%
    04:00 0°C° 0 mm 1 mps 750 mmHg 92%
    05:00 -1°C° 0 mm 1 mps 750 mmHg 91%
    06:00 -1°C° 0 mm 1 mps 750 mmHg 91%
    07:00 -2°C° 0 mm 2 mps 750 mmHg 90%
    08:00 -2°C° 0 mm 2 mps 751 mmHg 89%
    09:00 -2°C° 0 mm 2 mps 751 mmHg 87%
    10:00 -1°C° 0 mm 2 mps 751 mmHg 85%
    11:00 -1°C° 0 mm 3 mps 751 mmHg 83%
    12:00 0°C° 0 mm 3 mps 752 mmHg 81%
    13:00 0°C° 0 mm 3 mps 752 mmHg 79%
    14:00 0°C° 0 mm 4 mps 752 mmHg 77%
    15:00 0°C° 0 mm 5 mps 752 mmHg 74%
    16:00 -1°C° 0 mm 4 mps 753 mmHg 77%
    17:00 0°C° 0 mm 3 mps 753 mmHg 79%
    18:00 +1°C° 0 mm 2 mps 754 mmHg 82%
    19:00 -1°C° 0 mm 3 mps 754 mmHg 84%
    20:00 -1°C° 0 mm 3 mps 755 mmHg 85%
    21:00 -1°C° 0 mm 3 mps 756 mmHg 87%
    22:00 -2°C° 0 mm 3 mps 756 mmHg 88%
    23:00 -2°C° 0 mm 3 mps 756 mmHg 88%
    Show more